GW0787 Weather Reports


Display with metric or nautical units.
time (UTC)temp
F
wind
direction
speed
MPH
gust
MPH
rain 1hr
in
rain 24hr
in
rain mn
in
humidity
%
barometer
mb
20260505214540 82 193 5.0 12.0 0.00 0.00 0.00 26 1009.9
20260505213036 81 211 2.0 16.0 0.00 0.00 0.00 26 1010.1
20260505211527 80 63 1.0 10.0 0.00 0.00 0.00 27 1010.2
20260505210025 80 212 2.0 13.0 0.00 0.00 0.00 29 1010.3
20260505204526 81 218 3.0 13.0 0.00 0.00 0.00 27 1010.2
20260505203030 80 316 3.0 10.0 0.00 0.00 0.00 29 1010.3
20260505201531 80 78 3.0 10.0 0.00 0.00 0.00 30 1010.5
20260505200022 80 156 4.0 8.0 0.00 0.00 0.00 31 1010.4
20260505194517 77 102 0.0 5.0 0.00 0.00 0.00 32 1010.8
20260505193020 76 68 3.0 8.0 0.00 0.00 0.00 35 1010.9
20260505191517 76 14 3.0 5.0 0.00 0.00 0.00 34 1011.0
20260505190013 77 239 2.0 7.0 0.00 0.00 0.00 35 1011.1
20260505184510 75 183 3.0 7.0 0.00 0.00 0.00 40 1011.3
20260505183013 74 84 1.0 4.0 0.00 0.00 0.00 41 1011.5
20260505181504 73 120 0.0 5.0 0.00 0.00 0.00 42 1011.6
20260505180001 72 165 1.0 5.0 0.00 0.00 0.00 43 1011.7
20260505174605 70 193 1.0 3.0 0.00 0.00 0.00 45 1011.8
20260505173058 69 189 1.0 4.0 0.00 0.00 0.00 48 1012.0
20260505171552 68 162 0.0 2.0 0.00 0.00 0.00 48 1012.1
20260505170104 66 163 0.0 2.0 0.00 0.00 0.00 51 1012.2
20260505164547 64 165 0.0 0.0 0.00 0.00 0.00 60 1012.3
20260505163039 62 165 0.0 0.0 0.00 0.00 0.00 63 1012.4
20260505161534 60 165 0.0 0.0 0.00 0.00 0.00 68 1012.5
20260505153022 56 165 1.0 3.0 0.00 0.00 0.00 76 1012.9
20260505151520 54 165 1.0 3.0 0.00 0.00 0.00 80 1012.9
20260505124503 43 170 0.0 0.0 0.00 0.00 0.00 89 1012.1
20260505123001 44 171 0.0 0.0 0.00 0.00 0.00 90 1012.0
20260505121629 44 171 0.0 0.0 0.00 0.00 0.00 89 1011.9
20260505120057 44 171 0.0 0.0 0.00 0.00 0.00 89 1011.9
20260505114555 45 170 0.0 0.0 0.00 0.00 0.00 89 1011.9
20260505113054 45 171 0.0 0.0 0.00 0.00 0.00 88 1011.9
20260505111551 45 170 0.0 0.0 0.00 0.00 0.00 88 1011.8
20260505101553 47 170 0.0 0.0 0.00 0.00 0.00 87 1011.4
20260505094539 47 171 0.0 1.0 0.00 0.00 0.00 87 1011.3
20260505093041 48 170 0.0 0.0 0.00 0.00 0.00 86 1011.2
20260505091540 48 170 0.0 0.0 0.00 0.00 0.00 85 1011.1
20260505090048 49 171 0.0 1.0 0.00 0.00 0.00 85 1011.0
20260505084531 49 171 0.0 0.0 0.00 0.00 0.00 84 1011.0
20260505083029 50 170 0.0 0.0 0.00 0.00 0.00 84 1011.0
20260505081530 50 170 0.0 1.0 0.00 0.00 0.00 83 1010.9
20260505080023 50 170 0.0 2.0 0.00 0.00 0.00 82 1010.8
20260505074521 51 170 0.0 0.0 0.00 0.00 0.00 82 1010.8
20260505073019 52 170 0.0 1.0 0.00 0.00 0.00 80 1010.6
20260505071517 52 170 0.0 0.0 0.00 0.00 0.00 80 1010.4
20260505070015 53 170 0.0 0.0 0.00 0.00 0.00 80 1010.4
20260505064512 53 170 0.0 0.0 0.00 0.00 0.00 80 1010.2
20260505063014 54 170 0.0 2.0 0.00 0.00 0.00 78 1010.1
20260505061512 54 170 0.0 3.0 0.00 0.00 0.00 77 1010.0
20260505060024 55 170 0.0 0.0 0.00 0.00 0.00 76 1009.8
20260505054520 56 170 0.0 0.0 0.00 0.00 0.00 75 1009.6
20260505053010 56 170 0.0 0.0 0.00 0.00 0.00 74 1009.5
20260505051510 57 170 0.0 2.0 0.00 0.00 0.00 73 1009.4
20260505041509 61 112 0.0 2.0 0.00 0.00 0.00 65 1008.7
20260505040009 62 110 1.0 3.0 0.00 0.00 0.00 63 1008.4
20260505034508 64 83 0.0 2.0 0.00 0.00 0.00 60 1008.1
20260505033016 65 82 0.0 2.0 0.00 0.00 0.00 57 1007.9
20260505031509 68 205 1.0 5.0 0.00 0.00 0.00 50 1007.7
20260505030007 70 256 1.0 5.0 0.00 0.00 0.00 46 1007.5
20260505024506 69 181 2.0 3.0 0.00 0.00 0.00 47 1007.3
20260505023006 71 199 0.0 3.0 0.00 0.00 0.00 50 1007.1
20260505021506 72 186 1.0 3.0 0.00 0.00 0.00 45 1007.0
20260505020005 77 299 0.0 8.0 0.00 0.00 0.00 36 1006.9
20260505014509 79 240 0.0 6.0 0.00 0.00 0.00 35 1006.9
20260505013003 81 128 1.0 7.0 0.00 0.00 0.00 29 1006.7
20260505011501 80 4 1.0 8.0 0.00 0.00 0.00 30 1006.7
20260505010103 81 98 1.0 6.0 0.00 0.00 0.00 28 1006.8
20260505004600 81 45 4.0 9.0 0.00 0.00 0.00 26 1006.7
20260505003057 84 278 1.0 8.0 0.00 0.00 0.00 24 1006.7
20260505001554 82 66 4.0 12.0 0.00 0.00 0.00 23 1006.6
20260505000056 83 89 2.0 9.0 0.00 0.00 0.00 24 1006.7
20260504234614 84 245 1.0 7.0 0.00 0.00 0.00 23 1006.5
20260504233052 84 206 2.0 10.0 0.00 0.00 0.00 26 1006.6
20260504231554 83 343 3.0 12.0 0.00 0.00 0.00 24 1006.6
20260504230046 82 151 3.0 11.0 0.00 0.00 0.00 24 1006.8
20260504224546 83 233 4.0 9.0 0.00 0.00 0.00 22 1006.9
20260504223045 82 40 7.0 14.0 0.00 0.00 0.00 22 1006.9
20260504221552 83 314 5.0 11.0 0.00 0.00 0.00 20 1006.9
20260504220043 84 137 4.0 11.0 0.00 0.00 0.00 21 1006.9